Location: Nairn
(57.5833°N, 3.8667°W)
Time: 23:24:27
(UTC+00:00)

N. Korean satellite - Pass Details

Date: 01 November 2020
Orbit: 453 x 503 km, 97.2° (Epoch: 04 December)

Event Time Altitude Azimuth Distance (km) Brightness Sun altitude
Rises 17:00:09 0° 176° (S) 2,521 10.4 -4.8°
Reaches altitude 10° 17:02:15 10° 182° (S) 1,639 9.5 -5.0°
Maximum altitude 17:05:41 51° 259° (W) 598 7.6 -5.5°
Drops below altitude 10° 17:09:06 10° 337° (NNW) 1,627 9.3 -5.9°
Sets 17:11:11 0° 343° (NNW) 2,501 10.2 -6.2°
